Location: Igon
(43.1667°N, 0.2333°W)
Time: 13:31:36
(UTC+00:00)

ERS-2 - Visible Passes

Search period start: 12 April 2021 00:00
Search period end: 22 April 2021 00:00
Orbit: 492 x 496 km, 98.6° (Epoch: 11 April)

Date Brightness Start Highest point End Pass type
(mag) Time Alt. Az. Time Alt. Az. Time Alt. Az.
12 Apr 3.7 19:47:48 10° N 19:51:13 39° WNW 19:54:38 10° SW visible
13 Apr 2.3 19:26:15 10° N 19:29:55 76° WNW 19:33:32 10° SSW visible
14 Apr 5.7 20:40:22 10° NW 20:41:35 11° WNW 20:42:48 10° W visible
15 Apr 5.1 20:17:45 10° NNW 20:20:25 19° WNW 20:23:04 10° WSW visible
16 Apr 4.0 19:55:52 10° N 19:59:11 33° WNW 20:02:30 10° SW visible
17 Apr 2.6 19:34:16 10° N 19:37:53 64° WNW 19:41:29 10° SSW visible
18 Apr 2.1 19:12:53 10° NNE 19:16:32 65° ESE 19:20:07 10° S visible
19 Apr 5.3 20:25:56 10° NNW 20:28:20 17° WNW 20:30:45 10° WSW visible
20 Apr 4.3 20:03:56 10° N 20:07:07 29° WNW 20:10:18 10° SW visible
21 Apr 3.0 19:42:15 10° N 19:45:50 54° WNW 19:49:22 10° SSW visible
